Vorticity
nan nan nan nan nan nan nan nan nan nan nan nan nan nan nan nan nan nan nan nan nan nan nan nan nan nan nan nan nan nan nan nan nan nan nan nan nan nan nan nan nan nan nan nan nan nan nan nan nan
nan 1 4 7 6 6 7 8 8 10 8 6 6 6 4 8 11 11 8 9 5 5 8 10 9 5 4 4 4 5 4 5 5 5 5 4 4 4 4 4 4 5 5 5 5 5 6 6 nan
nan 0 5 6 6 5 6 11 12 10 3 1 5 6 9 10 11 5 8 8 5 5 9 13 8 5 5 4 5 5 5 4 4 5 5 4 4 4 4 4 5 5 5 5 5 6 6 5 nan
nan 4 6 5 6 8 6 9 9 3 2 10 7 4 10 10 9 10 8 4 4 5 10 12 6 4 4 4 5 4 5 4 4 4 4 4 4 4 4 4 4 4 5 7 8 7 7 6 nan
nan 6 5 6 7 7 9 9 6 5 6 8 5 7 6 9 15 10 4 5 4 5 8 9 8 4 4 4 4 4 4 4 4 4 4 4 4 4 4 4 3 5 7 7 7 7 7 7 nan
nan 7 4 7 5 7 11 7 6 8 10 7 6 6 9 14 6 4 5 5 5 5 6 10 8 4 5 4 4 4 3 4 4 4 4 4 4 4 4 3 4 6 6 6 6 6 6 5 nan
nan 9 6 5 6 9 14 7 7 8 6 7 4 2 11 8 5 6 5 6 6 5 7 7 8 9 6 3 4 4 4 4 4 4 4 4 4 4 4 4 4 5 6 5 5 5 5 6 nan
nan 7 9 7 9 9 10 7 6 4 8 10 7 7 12 11 5 4 5 5 6 7 6 7 7 7 6 9 8 4 4 4 4 4 4 5 5 4 4 4 5 6 7 7 8 7 6 7 nan
nan 7 6 8 8 11 7 5 6 8 9 3 9 16 18 13 4 4 4 4 6 6 6 6 7 7 7 7 9 9 6 5 5 5 4 5 5 5 5 5 6 8 6 8 7 7 7 6 nan
nan 6 8 8 6 13 6 5 6 9 1 2 13 18 14 7 4 6 5 3 4 4 4 5 7 7 7 6 8 8 7 8 8 6 6 6 7 7 6 6 6 8 8 8 8 9 8 8 nan
nan 2 4 5 11 15 6 2 6 6 4 16 14 6 5 3 3 5 6 7 6 4 5 5 5 7 6 6 7 7 7 7 7 7 6 7 7 7 8 8 8 7 8 7 8 8 8 8 nan
nan 7 3 5 13 14 8 1 10 1 8 23 17 7 4 3 4 4 5 6 6 6 6 5 6 6 5 7 7 7 6 7 7 8 7 7 7 7 7 7 7 7 7 7 8 7 7 8 nan
nan 8 9 6 9 10 10 5 10 3 12 18 11 7 4 4 5 5 6 6 7 6 6 6 6 6 6 5 6 7 7 7 7 7 7 7 6 6 8 8 7 7 7 7 7 8 8 8 nan
nan 6 7 10 11 10 8 5 4 15 12 10 8 4 5 5 4 5 6 6 6 6 7 6 6 6 6 6 6 6 7 7 7 7 8 7 7 6 7 8 7 8 8 8 7 7 8 8 nan
nan 8 16 13 10 7 9 7 4 14 11 6 5 5 6 6 5 5 5 6 6 7 9 7 6 6 6 6 6 7 8 7 7 8 9 8 7 7 7 8 8 8 9 8 7 7 7 8 nan
nan 9 6 10 12 13 9 7 12 10 7 6 5 5 6 8 6 5 6 6 6 8 8 7 8 6 5 6 7 7 8 7 8 8 10 9 7 8 7 7 7 8 9 7 8 8 8 6 nan
nan 10 2 11 11 13 5 8 20 10 6 6 6 6 6 6 6 8 7 7 7 7 8 8 8 8 6 5 7 8 8 7 7 8 9 10 8 8 7 7 8 9 7 8 8 7 8 8 nan
nan 6 9 8 10 10 5 11 18 12 7 6 5 6 7 7 7 7 8 7 7 7 7 7 8 8 7 6 6 7 7 8 9 9 9 9 9 9 7 7 8 8 7 7 8 8 7 8 nan
nan 8 7 5 8 11 8 10 15 10 5 9 8 7 7 8 8 7 9 9 7 7 8 8 6 6 6 6 5 8 8 8 8 10 10 8 9 9 7 6 8 8 9 9 7 8 7 7 nan
nan 5 6 8 11 10 15 10 16 13 11 7 5 6 5 7 9 9 8 8 8 8 6 6 6 6 5 5 6 9 11 9 10 9 10 10 9 7 7 7 8 8 8 9 8 7 7 7 nan
nan 9 8 3 10 10 8 13 13 6 9 13 9 8 9 9 6 8 8 6 7 7 8 7 7 5 6 5 2 4 7 8 9 9 10 11 10 8 8 8 8 8 8 8 8 8 8 7 nan
nan 12 9 7 7 9 5 10 10 19 9 3 8 9 7 6 6 8 9 8 6 6 7 8 9 8 7 7 6 5 4 4 5 9 9 10 9 8 8 8 8 7 8 9 8 8 8 9 nan
nan 11 10 11 7 6 5 11 15 16 11 9 7 7 9 8 7 7 9 8 7 9 8 8 8 7 9 8 5 5 5 7 7 11 10 7 9 10 8 8 8 7 8 10 9 8 7 7 nan
nan 3 6 11 13 9 12 5 7 13 12 7 8 7 9 9 8 6 7 9 9 10 9 10 10 8 8 9 8 6 5 5 4 6 9 9 9 10 9 10 8 8 8 9 9 8 8 7 nan
nan 3 7 8 9 12 14 4 9 12 17 12 9 6 8 9 8 7 6 8 10 10 8 9 10 9 8 8 8 7 7 7 6 4 7 7 7 10 12 8 7 8 10 8 9 8 9 8 nan
nan 4 8 11 7 14 9 9 15 14 11 15 11 11 9 10 11 10 7 6 8 9 8 8 8 8 9 8 8 8 6 6 9 7 8 8 8 9 12 9 8 8 8 9 8 7 9 9 nan
nan 12 3 5 9 13 4 6 15 19 14 13 13 12 12 12 12 11 10 8 7 9 10 7 7 8 9 7 8 8 8 7 7 8 7 8 8 9 11 11 9 9 8 8 8 8 9 8 nan
nan 6 3 9 13 3 10 12 15 11 8 5 12 13 10 14 13 11 11 10 10 10 10 9 9 9 8 9 7 10 9 7 6 7 8 7 7 9 10 10 10 9 9 8 7 6 10 8 nan
nan 6 10 11 8 6 10 12 14 9 15 12 6 9 13 12 12 11 11 12 10 9 12 11 10 9 8 9 8 8 9 9 7 7 8 9 8 9 8 9 9 9 8 8 7 7 8 7 nan
nan nan nan nan nan nan nan nan nan nan nan nan nan nan nan nan nan nan nan nan nan nan nan nan nan nan nan nan nan nan nan nan nan nan nan nan nan nan nan nan nan nan nan nan nan nan nan nan nan
CAPE
334 420 195 172 84 84 76 33 32 72 41 11 12 0 3 5 1 5 3 0 39 59 213 352 1376 1835 1676 1951 2226 1994 1845 1752 1837 2004 2055 2122 1940 1942 1881 1787 1772 1774 1796 1781 1675 1673 1577 1561 1554
420 362 81 163 107 47 56 20 43 25 0 0 0 0 0 2 5 4 19 0 62 143 292 354 1711 2160 1786 1917 2231 2218 1725 1746 1812 2015 2176 2065 1994 1891 1711 1615 1562 1557 1531 1518 1591 1569 1648 1587 1482
451 306 2 45 104 53 71 34 13 0 0 0 0 0 0 17 5 12 0 7 6 135 195 519 1855 2384 1660 1754 1974 2218 2279 1905 2214 2257 2053 1995 1887 1762 1633 1587 1544 1625 1683 1601 1441 1353 1377 1420 1393
719 488 145 77 83 96 57 80 19 0 0 0 0 4 8 5 1 0 0 27 60 210 373 1141 1706 1653 1620 1857 1957 2132 1924 1790 1732 1967 1985 1858 1773 1678 1649 1671 1711 1758 1986 1702 1600 1620 1526 1377 1363
254 121 8 19 35 62 45 90 1 8 3 17 17 10 23 38 0 0 13 44 120 295 484 1020 2074 2015 1783 1772 1943 1896 1913 1872 1788 1737 1880 1821 1688 1626 1602 1629 1757 1869 1904 1648 1386 1410 1453 1498 1470
5 105 27 19 28 37 102 82 82 37 35 0 0 5 84 11 5 20 35 67 234 402 658 945 1627 1842 1674 1665 1675 1690 1807 1886 1899 1725 1804 1860 1631 1574 1490 1485 1596 1779 1741 1667 1408 1283 1312 1426 1488
0 0 25 14 38 66 168 80 99 28 0 7 32 51 86 26 28 44 82 159 297 673 745 856 864 1169 1457 1568 1613 1640 1747 1874 1963 1933 1832 1866 1728 1510 1449 1466 1540 1537 1543 1621 1653 1695 1463 1464 1681
0 0 36 50 76 76 209 159 90 1 28 0 19 18 73 73 69 98 169 261 551 791 831 973 947 921 996 1183 1532 1517 1722 1815 1938 1906 1746 1809 1769 1645 1596 1777 1701 1869 1590 1502 1647 1586 1441 1554 1707
8 0 2 61 65 137 246 228 126 42 0 20 54 15 32 99 116 131 207 317 644 782 797 933 1064 890 1053 1131 1343 1772 1690 1802 1827 1712 1834 1855 1344 1251 1632 1783 2141 2077 1671 1788 1523 1752 1704 1158 1878
0 0 0 27 25 304 301 202 145 78 0 127 31 112 117 118 141 142 143 157 405 598 831 883 970 988 1154 1604 1418 1299 968 1231 1449 1378 1166 1413 1282 1004 1443 1872 2206 2365 2045 1967 1592 1654 1733 994 933
0 5 0 0 8 245 365 207 177 97 11 126 111 153 220 182 156 143 136 141 209 421 780 939 936 994 1112 1496 1095 985 879 967 1065 928 793 695 1175 860 755 938 898 676 948 949 1279 1081 1065 1240 1183
2 0 0 0 0 247 307 194 253 67 37 167 128 177 205 180 171 147 127 102 90 275 659 889 900 932 827 758 847 741 806 692 687 545 422 418 507 644 666 808 571 534 733 1090 374 984 695 980 1074
27 66 12 1 0 211 242 297 288 101 251 99 146 225 208 188 185 173 162 175 91 271 408 716 842 836 694 419 450 444 530 636 464 353 236 394 599 529 669 753 610 544 786 1193 852 546 717 973 893
8 7 0 8 13 54 266 302 298 193 192 174 219 207 218 216 240 285 284 299 280 283 333 497 721 728 460 378 124 249 295 339 321 244 173 250 672 509 598 649 686 598 750 1013 737 953 973 743 620
0 0 0 3 1 0 238 305 321 277 308 283 251 250 258 242 265 384 409 391 443 379 379 458 523 572 324 145 2 1 110 316 340 374 372 518 645 632 668 731 707 689 462 833 836 759 315 0 0
0 0 0 0 0 0 253 247 341 346 442 338 368 345 307 304 355 351 458 449 452 406 385 407 544 433 181 74 0 24 47 143 461 776 763 648 784 618 529 705 645 547 704 755 518 485 134 0 0
0 0 0 0 0 0 73 4 4 364 458 371 280 340 372 343 375 375 411 485 464 375 335 330 403 343 198 59 5 53 84 237 318 294 655 600 750 727 501 499 418 687 597 547 400 385 0 0 0
0 0 0 0 0 0 0 0 14 339 403 399 276 230 325 344 349 348 386 444 433 310 320 220 368 286 206 110 75 163 122 151 72 95 226 553 692 846 628 613 563 880 948 505 357 54 0 0 0
0 0 0 0 0 0 0 0 184 276 367 412 336 218 241 244 212 214 238 352 252 205 196 105 239 114 136 227 243 352 340 202 290 516 494 511 690 1203 1008 931 799 799 895 753 340 0 0 0 0
0 0 0 0 0 0 0 0 202 181 289 425 421 394 240 185 119 97 128 223 164 97 152 154 137 130 44 242 350 439 408 141 342 609 428 503 780 1131 1035 882 652 783 475 290 82 0 0 0 0
0 0 0 0 0 0 0 0 125 187 137 233 362 385 340 261 155 32 75 144 311 120 99 165 152 126 122 146 171 154 158 230 257 358 537 346 702 1040 1419 1055 456 597 495 295 24 0 0 0 0
0 0 0 0 0 0 0 0 0 91 143 63 74 267 299 228 105 17 49 71 179 237 101 93 124 193 152 149 226 376 521 622 438 351 444 699 665 814 1088 787 582 462 214 145 0 0 0 0 0
0 0 0 0 0 0 0 0 0 1 99 81 53 32 50 62 54 6 0 34 54 156 134 51 72 196 152 189 284 303 453 307 163 308 461 374 703 858 925 816 656 448 119 98 0 0 0 0 0
0 0 0 0 0 0 0 0 0 0 23 60 42 68 82 50 21 11 0 0 4 126 156 52 117 204 198 131 229 284 340 139 202 160 369 422 568 715 833 881 748 548 261 59 0 0 0 0 0
0 0 0 0 0 0 0 0 0 0 0 0 0 0 22 90 53 18 9 0 12 81 145 62 120 171 244 200 211 312 336 215 325 221 278 263 468 590 775 816 606 372 255 89 0 0 0 0 0
0 0 0 0 0 0 0 0 0 0 0 0 0 0 0 0 15 32 11 0 0 35 123 68 129 132 230 313 326 393 442 360 386 251 284 320 512 715 876 821 769 388 173 51 0 0 0 0 0
0 0 0 0 0 0 0 0 0 0 0 0 0 0 0 0 0 0 5 0 0 2 68 57 101 128 168 405 436 459 494 504 405 360 102 237 449 606 681 837 875 439 153 11 0 0 0 0 0
0 0 0 0 0 0 0 0 0 0 0 0 0 0 0 0 0 0 0 0 0 0 22 80 73 115 155 445 529 554 561 525 503 406 97 154 242 488 530 725 839 497 180 4 0 0 0 0 0
0 0 0 0 0 0 0 0 0 0 0 0 0 0 0 0 0 0 0 0 0 0 0 27 85 159 157 539 657 714 681 630 546 477 288 207 200 249 401 603 718 598 206 32 0 0 0 0 0
0 0 0 0 0 0 0 0 0 0 0 0 0 0 0 0 0 0 0 0 0 0 0 0 31 199 256 338 717 801 799 712 605 554 490 377 282 147 234 503 646 670 324 111 48 6 0 0 0